| time (UTC) | temp F | wind direction | speed MPH | gust MPH | rain 1hr in | rain 24hr in | rain mn in | humidity % | barometer mb |
| 20260903194709 | 90 | 143 | 3.0 | 11.0 | 0.00 | 0.00 | 0.00 | 61 | 1015.8 |
| 20260903194212 | 89 | 180 | 3.0 | 11.0 | 0.00 | 0.00 | 0.00 | 63 | 1015.9 |
| 20260903193708 | 89 | 255 | 3.0 | 8.0 | 0.00 | 0.00 | 0.00 | 62 | 1015.9 |
| 20260903193207 | 90 | 188 | 2.0 | 7.0 | 0.00 | 0.00 | 0.00 | 61 | 1016.1 |
| 20260903192708 | 89 | 129 | 2.0 | 9.0 | 0.00 | 0.00 | 0.00 | 64 | 1016.2 |
| 20260903192208 | 89 | 210 | 3.0 | 9.0 | 0.00 | 0.00 | 0.00 | 64 | 1016.2 |
| 20260903191707 | 88 | 181 | 2.0 | 8.0 | 0.00 | 0.00 | 0.00 | 67 | 1016.2 |
| 20260903191209 | 88 | 274 | 2.0 | 8.0 | 0.00 | 0.00 | 0.00 | 64 | 1016.2 |
| 20260903191002 | 88 | 234 | 2.0 | 8.0 | 0.00 | 0.00 | 0.00 | 65 | 1016.3 |
| 20260903190208 | 88 | 271 | 2.0 | 8.0 | 0.00 | 0.00 | 0.00 | 65 | 1016.4 |
| 20260903185709 | 88 | 215 | 2.0 | 8.0 | 0.00 | 0.00 | 0.00 | 66 | 1016.4 |
| 20260903185210 | 88 | 210 | 3.0 | 8.0 | 0.00 | 0.00 | 0.00 | 65 | 1016.5 |
| 20260903184706 | 88 | 208 | 3.0 | 8.0 | 0.00 | 0.00 | 0.00 | 64 | 1016.6 |
| 20260903184207 | 88 | 171 | 3.0 | 9.0 | 0.00 | 0.00 | 0.00 | 65 | 1016.7 |
| 20260903183707 | 88 | 194 | 3.0 | 11.0 | 0.00 | 0.00 | 0.00 | 65 | 1017.0 |
| 20260903183206 | 88 | 187 | 2.0 | 11.0 | 0.00 | 0.00 | 0.00 | 64 | 1016.7 |
| 20260903182707 | 88 | 222 | 2.0 | 9.0 | 0.00 | 0.00 | 0.00 | 65 | 1016.6 |
| 20260903182206 | 88 | 194 | 3.0 | 9.0 | 0.00 | 0.00 | 0.00 | 64 | 1016.5 |
| 20260903181707 | 87 | 217 | 2.0 | 9.0 | 0.00 | 0.00 | 0.00 | 65 | 1016.6 |
| 20260903181207 | 87 | 158 | 2.0 | 11.0 | 0.00 | 0.02 | 0.00 | 67 | 1016.8 |
| 20260903180702 | 87 | 279 | 3.0 | 11.0 | 0.00 | 0.13 | 0.00 | 66 | 1017.0 |
| 20260903180202 | 87 | 178 | 3.0 | 7.0 | 0.00 | 0.27 | 0.00 | 68 | 1016.9 |
| 20260903175702 | 87 | 201 | 2.0 | 7.0 | 0.00 | 0.37 | 0.00 | 68 | 1016.7 |
| 20260903175203 | 86 | 205 | 2.0 | 7.0 | 0.00 | 0.37 | 0.00 | 67 | 1016.6 |
| 20260903174703 | 86 | 143 | 3.0 | 9.0 | 0.00 | 0.37 | 0.00 | 67 | 1016.6 |
| 20260903174202 | 86 | 251 | 3.0 | 9.0 | 0.00 | 0.37 | 0.00 | 67 | 1017.1 |
| 20260903173703 | 86 | 269 | 3.0 | 9.0 | 0.00 | 0.37 | 0.00 | 67 | 1017.3 |
| 20260903173457 | 86 | 129 | 3.0 | 9.0 | 0.00 | 0.37 | 0.00 | 67 | 1017.5 |
| 20260903172703 | 86 | 143 | 2.0 | 7.0 | 0.00 | 0.37 | 0.00 | 69 | 1017.7 |
| 20260903172202 | 85 | 153 | 3.0 | 8.0 | 0.00 | 0.37 | 0.00 | 68 | 1017.8 |
| 20260903171703 | 85 | 169 | 3.0 | 9.0 | 0.00 | 0.37 | 0.00 | 71 | 1017.8 |
| 20260903171202 | 84 | 242 | 3.0 | 9.0 | 0.00 | 0.37 | 0.00 | 71 | 1017.9 |
| 20260903170702 | 84 | 188 | 2.0 | 8.0 | 0.00 | 0.37 | 0.00 | 72 | 1018.0 |
| 20260903170202 | 83 | 188 | 2.0 | 7.0 | 0.00 | 0.37 | 0.00 | 74 | 1018.0 |
| 20260903165702 | 83 | 183 | 2.0 | 7.0 | 0.00 | 0.37 | 0.00 | 75 | 1018.1 |
| 20260903165202 | 82 | 162 | 3.0 | 8.0 | 0.00 | 0.37 | 0.00 | 76 | 1018.2 |
| 20260903164702 | 81 | 192 | 2.0 | 8.0 | 0.00 | 0.37 | 0.00 | 79 | 1018.4 |
| 20260903164458 | 80 | 260 | 2.0 | 7.0 | 0.00 | 0.37 | 0.00 | 81 | 1018.3 |
| 20260903163704 | 80 | 117 | 2.0 | 7.0 | 0.00 | 0.37 | 0.00 | 82 | 1018.1 |
| 20260903163203 | 79 | 169 | 2.0 | 7.0 | 0.00 | 0.37 | 0.00 | 83 | 1018.1 |
| 20260903162704 | 79 | 205 | 2.0 | 9.0 | 0.00 | 0.37 | 0.00 | 83 | 1018.1 |
| 20260903162202 | 79 | 198 | 2.0 | 9.0 | 0.00 | 0.37 | 0.00 | 83 | 1018.4 |
| 20260903161955 | 79 | 353 | 2.0 | 8.0 | 0.00 | 0.37 | 0.00 | 84 | 1018.7 |
| 20260903161203 | 79 | 134 | 2.0 | 7.0 | 0.00 | 0.37 | 0.00 | 85 | 1018.7 |
| 20260903160703 | 79 | 281 | 2.0 | 8.0 | 0.00 | 0.37 | 0.00 | 85 | 1019.1 |
| 20260903160203 | 79 | 28 | 1.0 | 8.0 | 0.00 | 0.37 | 0.00 | 86 | 1019.1 |
| 20260903155704 | 79 | 275 | 1.0 | 4.0 | 0.00 | 0.37 | 0.00 | 86 | 1019.2 |
| 20260903155202 | 79 | 54 | 1.0 | 12.0 | 0.00 | 0.37 | 0.00 | 86 | 1019.1 |
| 20260903154702 | 78 | 326 | 2.0 | 12.0 | 0.00 | 0.37 | 0.00 | 86 | 1019.4 |
| 20260903154500 | 79 | 311 | 2.0 | 11.0 | 0.00 | 0.37 | 0.00 | 86 | 1020.1 |
| 20260903153702 | 78 | 28 | 3.0 | 12.0 | 0.00 | 0.37 | 0.00 | 86 | 1020.0 |
| 20260903153202 | 78 | 261 | 4.0 | 14.0 | 0.00 | 0.37 | 0.00 | 87 | 1019.9 |
| 20260903152701 | 78 | 100 | 3.0 | 14.0 | 0.00 | 0.37 | 0.00 | 87 | 1019.6 |
| 20260903152200 | 78 | 286 | 2.0 | 9.0 | 0.00 | 0.37 | 0.00 | 89 | 1019.2 |
| 20260903152001 | 78 | 210 | 2.0 | 8.0 | 0.00 | 0.37 | 0.00 | 89 | 1018.9 |
| 20260903151201 | 78 | 176 | 2.0 | 8.0 | 0.00 | 0.37 | 0.00 | 90 | 1018.7 |
| 20260903150956 | 77 | 208 | 2.0 | 8.0 | 0.00 | 0.37 | 0.00 | 91 | 1018.7 |
| 20260903150201 | 77 | 178 | 2.0 | 8.0 | 0.00 | 0.37 | 0.00 | 92 | 1018.8 |
| 20260903145701 | 77 | 198 | 2.0 | 7.0 | 0.00 | 0.37 | 0.00 | 93 | 1018.7 |
| 20260903145201 | 76 | 224 | 1.0 | 4.0 | 0.00 | 0.37 | 0.00 | 94 | 1018.7 |
| 20260903144702 | 76 | 166 | 1.0 | 5.0 | 0.00 | 0.37 | 0.00 | 94 | 1018.6 |
| 20260903144455 | 76 | 73 | 2.0 | 5.0 | 0.00 | 0.37 | 0.00 | 94 | 1018.6 |
| 20260903143701 | 76 | 222 | 2.0 | 5.0 | 0.00 | 0.37 | 0.00 | 95 | 1018.5 |
| 20260903143202 | 76 | 178 | 2.0 | 5.0 | 0.00 | 0.37 | 0.00 | 95 | 1018.3 |
| 20260903142702 | 75 | 11 | 2.0 | 7.0 | 0.00 | 0.37 | 0.00 | 95 | 1018.3 |
| 20260903142202 | 75 | 188 | 2.0 | 7.0 | 0.00 | 0.37 | 0.00 | 95 | 1018.3 |
| 20260903141701 | 75 | 164 | 2.0 | 7.0 | 0.00 | 0.37 | 0.00 | 95 | 1018.2 |
| 20260903141204 | 75 | 173 | 1.0 | 7.0 | 0.00 | 0.37 | 0.00 | 95 | 1018.3 |
| 20260903140703 | 74 | 166 | 1.0 | 4.0 | 0.00 | 0.37 | 0.00 | 95 | 1018.0 |
| 20260903140203 | 74 | 100 | 2.0 | 5.0 | 0.00 | 0.37 | 0.00 | 95 | 1017.9 |
| 20260903135702 | 74 | 217 | 2.0 | 5.0 | 0.00 | 0.37 | 0.00 | 95 | 1018.2 |
| 20260903135203 | 74 | 187 | 2.0 | 5.0 | 0.00 | 0.37 | 0.00 | 95 | 1018.1 |
| 20260903134703 | 74 | 171 | 1.0 | 4.0 | 0.00 | 0.37 | 0.00 | 95 | 1017.9 |
| 20260903134455 | 74 | 167 | 2.0 | 7.0 | 0.00 | 0.37 | 0.00 | 95 | 1017.7 |
| 20260903133957 | 74 | 143 | 2.0 | 7.0 | 0.00 | 0.37 | 0.00 | 95 | 1018.0 |
| 20260903133200 | 74 | 234 | 1.0 | 5.0 | 0.00 | 0.37 | 0.00 | 95 | 1018.1 |
| 20260903132701 | 74 | 205 | 1.0 | 5.0 | 0.00 | 0.37 | 0.00 | 95 | 1018.0 |
| 20260903132201 | 74 | 234 | 1.0 | 3.0 | 0.00 | 0.37 | 0.00 | 95 | 1017.9 |
| 20260903131701 | 74 | 171 | 1.0 | 3.0 | 0.00 | 0.37 | 0.00 | 95 | 1018.2 |
| 20260903131201 | 74 | 171 | 1.0 | 4.0 | 0.00 | 0.37 | 0.00 | 95 | 1018.6 |
| 20260903130953 | 74 | 110 | 1.0 | 4.0 | 0.00 | 0.37 | 0.00 | 95 | 1018.8 |
| 20260903130203 | 74 | 11 | 1.0 | 3.0 | 0.00 | 0.37 | 0.00 | 95 | 1018.8 |
| 20260903125954 | 74 | 66 | 1.0 | 4.0 | 0.00 | 0.37 | 0.00 | 95 | 1019.1 |
| 20260903125201 | 74 | 125 | 1.0 | 4.0 | 0.00 | 0.37 | 0.00 | 96 | 1019.3 |
| 20260903124702 | 74 | 178 | 1.0 | 4.0 | 0.00 | 0.37 | 0.00 | 95 | 1019.2 |
| 20260903124204 | 73 | 279 | 1.0 | 3.0 | 0.00 | 0.37 | 0.00 | 95 | 1019.2 |
| 20260903123701 | 73 | 155 | 1.0 | 3.0 | 0.00 | 0.37 | 0.00 | 95 | 1019.3 |
| 20260903123456 | 73 | 162 | 1.0 | 3.0 | 0.00 | 0.37 | 0.00 | 95 | 1019.3 |
| 20260903122702 | 73 | 11 | 0.0 | 1.0 | 0.00 | 0.37 | 0.00 | 95 | 1019.3 |
| 20260903122200 | 73 | 89 | 0.0 | 3.0 | 0.00 | 0.37 | 0.00 | 95 | 1019.5 |
| 20260903121701 | 73 | 205 | 1.0 | 3.0 | 0.00 | 0.37 | 0.00 | 95 | 1019.6 |
| 20260903121201 | 73 | 326 | 1.0 | 4.0 | 0.00 | 0.37 | 0.00 | 95 | 1019.5 |
| 20260903120701 | 73 | 100 | 1.0 | 4.0 | 0.00 | 0.37 | 0.00 | 95 | 1019.6 |
| 20260903120201 | 73 | 353 | 1.0 | 3.0 | 0.00 | 0.37 | 0.00 | 95 | 1019.8 |
| 20260903115701 | 73 | 37 | 1.0 | 3.0 | 0.00 | 0.37 | 0.00 | 95 | 1019.8 |
| 20260903115201 | 73 | 326 | 1.0 | 5.0 | 0.00 | 0.37 | 0.00 | 95 | 1020.0 |
| 20260903114956 | 73 | 11 | 1.0 | 5.0 | 0.00 | 0.37 | 0.00 | 95 | 1019.8 |
| 20260903114202 | 73 | 205 | 1.0 | 3.0 | 0.00 | 0.37 | 0.00 | 95 | 1019.9 |
| 20260903113703 | 73 | 326 | 1.0 | 4.0 | 0.00 | 0.37 | 0.00 | 95 | 1019.9 |
| 20260903113202 | 73 | 16 | 1.0 | 4.0 | 0.00 | 0.37 | 0.00 | 95 | 1020.0 |
| 20260903112704 | 73 | 39 | 2.0 | 8.0 | 0.00 | 0.37 | 0.00 | 95 | 1020.0 |
| 20260903112202 | 73 | 11 | 2.0 | 8.0 | 0.00 | 0.37 | 0.00 | 95 | 1019.7 |
| 20260903111951 | 73 | 47 | 1.0 | 7.0 | 0.00 | 0.37 | 0.00 | 95 | 1019.5 |
| 20260903111203 | 72 | 11 | 1.0 | 7.0 | 0.00 | 0.37 | 0.00 | 95 | 1019.6 |
| 20260903110702 | 72 | 296 | 1.0 | 3.0 | 0.00 | 0.37 | 0.00 | 95 | 1019.0 |
| 20260903110202 | 72 | 28 | 0.0 | 1.0 | 0.00 | 0.37 | 0.00 | 95 | 1018.6 |
| 20260903105957 | 72 | 11 | 0.0 | 3.0 | 0.00 | 0.37 | 0.00 | 95 | 1018.5 |
| 20260903105202 | 72 | 326 | 0.0 | 3.0 | 0.00 | 0.37 | 0.00 | 95 | 1018.5 |
| 20260903104702 | 72 | 125 | 0.0 | 3.0 | 0.00 | 0.37 | 0.00 | 95 | 1018.6 |
| 20260903104204 | 72 | 143 | 0.0 | 1.0 | 0.00 | 0.37 | 0.00 | 95 | 1018.6 |
| 20260903103703 | 72 | 326 | 0.0 | 3.0 | 0.00 | 0.37 | 0.00 | 95 | 1018.4 |
| 20260903103202 | 72 | 326 | 0.0 | 3.0 | 0.00 | 0.37 | 0.00 | 95 | 1018.3 |
| 20260903102704 | 71 | 107 | 0.0 | 3.0 | 0.00 | 0.37 | 0.00 | 95 | 1018.1 |
| 20260903102202 | 71 | 353 | 0.0 | 3.0 | 0.00 | 0.37 | 0.00 | 94 | 1018.2 |
| 20260903101703 | 71 | 82 | 1.0 | 3.0 | 0.00 | 0.37 | 0.00 | 94 | 1018.1 |
| 20260903101458 | 71 | 0 | 0.0 | 3.0 | 0.00 | 0.37 | 0.00 | 94 | 1018.0 |
| 20260903100702 | 71 | 11 | 0.0 | 1.0 | 0.00 | 0.37 | 0.00 | 94 | 1017.8 |
| 20260903100202 | 71 | 326 | 0.0 | 1.0 | 0.00 | 0.37 | 0.00 | 94 | 1017.8 |
| 20260903095705 | 71 | 54 | 0.0 | 1.0 | 0.00 | 0.37 | 0.00 | 94 | 1017.8 |
| 20260903095203 | 71 | 260 | 0.0 | 1.0 | 0.00 | 0.37 | 0.00 | 94 | 1017.8 |
| 20260903094704 | 71 | 251 | 0.0 | 1.0 | 0.00 | 0.37 | 0.00 | 94 | 1017.8 |
| 20260903094202 | 71 | 11 | 0.0 | 1.0 | 0.00 | 0.37 | 0.00 | 94 | 1017.8 |
| 20260903093704 | 71 | 54 | 0.0 | 1.0 | 0.00 | 0.37 | 0.00 | 94 | 1017.8 |
| 20260903093203 | 71 | 260 | 0.0 | 1.0 | 0.00 | 0.37 | 0.00 | 94 | 1018.0 |
| 20260903092705 | 71 | 54 | 0.0 | 1.0 | 0.00 | 0.37 | 0.00 | 94 | 1018.0 |
| 20260903092458 | 71 | 54 | 0.0 | 1.0 | 0.00 | 0.37 | 0.00 | 94 | 1018.1 |
| 20260903091703 | 71 | 28 | 0.0 | 1.0 | 0.00 | 0.37 | 0.00 | 94 | 1018.0 |
| 20260903091202 | 71 | 28 | 0.0 | 1.0 | 0.00 | 0.37 | 0.00 | 94 | 1018.0 |
| 20260903090701 | 71 | 11 | 0.0 | 1.0 | 0.00 | 0.37 | 0.00 | 94 | 1018.0 |
| 20260903090200 | 71 | 54 | 0.0 | 1.0 | 0.00 | 0.37 | 0.00 | 94 | 1018.0 |
| 20260903085701 | 71 | 11 | 0.0 | 1.0 | 0.00 | 0.37 | 0.00 | 94 | 1018.0 |
| 20260903085201 | 71 | 28 | 0.0 | 1.0 | 0.00 | 0.37 | 0.00 | 94 | 1018.0 |
| 20260903084701 | 72 | 28 | 0.0 | 1.0 | 0.00 | 0.37 | 0.00 | 94 | 1017.9 |
| 20260903084201 | 72 | 54 | 1.0 | 3.0 | 0.00 | 0.37 | 0.00 | 94 | 1017.9 |
| 20260903083702 | 72 | 11 | 1.0 | 3.0 | 0.00 | 0.37 | 0.00 | 94 | 1017.9 |
| 20260903083339 | 72 | 11 | 0.0 | 1.0 | 0.00 | 0.37 | 0.00 | 94 | 1017.5 |
| 20260903083310 | 72 | 345 | 0.0 | 3.0 | 0.00 | 0.37 | 0.00 | 94 | 1017.8 |
| 20260903083033 | 72 | 353 | 0.0 | 1.0 | 0.00 | 0.37 | 0.00 | 94 | 1017.6 |
| 20260903081658 | 72 | 82 | 0.0 | 1.0 | 0.00 | 0.37 | 0.00 | 94 | 1017.5 |
| 20260903081158 | 72 | 28 | 0.0 | 4.0 | 0.00 | 0.37 | 0.00 | 94 | 1017.7 |
| 20260903080700 | 72 | 234 | 1.0 | 4.0 | 0.00 | 0.37 | 0.00 | 94 | 1017.6 |
| 20260903080200 | 72 | 326 | 0.0 | 3.0 | 0.00 | 0.37 | 0.00 | 94 | 1017.7 |
| 20260903075700 | 72 | 11 | 0.0 | 1.0 | 0.00 | 0.37 | 0.00 | 94 | 1017.8 |
| 20260903075158 | 72 | 100 | 0.0 | 1.0 | 0.00 | 0.37 | 0.00 | 94 | 1017.7 |
| 20260903074658 | 72 | 54 | 0.0 | 1.0 | 0.00 | 0.37 | 0.00 | 94 | 1017.8 |
| 20260903074452 | 71 | 234 | 0.0 | 3.0 | 0.00 | 0.37 | 0.00 | 94 | 1017.8 |
| 20260903073950 | 71 | 234 | 1.0 | 3.0 | 0.00 | 0.37 | 0.00 | 94 | 1017.7 |
| 20260903073156 | 71 | 234 | 0.0 | 3.0 | 0.00 | 0.37 | 0.00 | 94 | 1017.8 |
| 20260903072657 | 71 | 279 | 0.0 | 1.0 | 0.00 | 0.37 | 0.00 | 94 | 1017.7 |
| 20260903072152 | 71 | 260 | 0.0 | 1.0 | 0.00 | 0.37 | 0.00 | 94 | 1017.7 |
| 20260903071944 | 71 | 54 | 0.0 | 1.0 | 0.00 | 0.37 | 0.00 | 94 | 1017.7 |
| 20260903071154 | 71 | 11 | 0.0 | 1.0 | 0.00 | 0.37 | 0.00 | 94 | 1017.7 |
| 20260903070648 | 71 | 100 | 0.0 | 1.0 | 0.00 | 0.37 | 0.00 | 94 | 1017.8 |
| 20260903070149 | 71 | 11 | 0.0 | 1.0 | 0.00 | 0.37 | 0.00 | 94 | 1017.6 |
| 20260903065649 | 71 | 54 | 0.0 | 1.0 | 0.00 | 0.37 | 0.00 | 93 | 1017.7 |
| 20260903065149 | 71 | 54 | 0.0 | 1.0 | 0.00 | 0.37 | 0.00 | 93 | 1017.7 |
| 20260903064651 | 71 | 260 | 0.0 | 1.0 | 0.00 | 0.37 | 0.00 | 93 | 1017.7 |
| 20260903064151 | 71 | 100 | 0.0 | 1.0 | 0.00 | 0.37 | 0.00 | 93 | 1017.8 |
| 20260903063649 | 71 | 54 | 0.0 | 1.0 | 0.00 | 0.37 | 0.00 | 93 | 1017.9 |
| 20260903063441 | 71 | 11 | 0.0 | 1.0 | 0.00 | 0.37 | 0.00 | 93 | 1017.9 |
| 20260903062650 | 71 | 11 | 0.0 | 1.0 | 0.00 | 0.37 | 0.00 | 93 | 1017.9 |
| 20260903062146 | 71 | 100 | 0.0 | 1.0 | 0.00 | 0.37 | 0.00 | 93 | 1017.9 |
| 20260903061647 | 71 | 11 | 0.0 | 1.0 | 0.00 | 0.37 | 0.00 | 93 | 1017.9 |
| 20260903061146 | 71 | 100 | 0.0 | 1.0 | 0.00 | 0.37 | 0.00 | 93 | 1018.0 |
| 20260903060939 | 71 | 54 | 0.0 | 1.0 | 0.00 | 0.37 | 0.00 | 93 | 1018.0 |
| 20260903060146 | 71 | 54 | 0.0 | 1.0 | 0.00 | 0.37 | 0.00 | 93 | 1018.1 |
| 20260903055939 | 71 | 326 | 0.0 | 1.0 | 0.00 | 0.37 | 0.00 | 93 | 1018.1 |
| 20260903055145 | 71 | 54 | 0.0 | 1.0 | 0.00 | 0.37 | 0.00 | 93 | 1018.2 |
| 20260903054646 | 71 | 54 | 0.0 | 1.0 | 0.00 | 0.37 | 0.00 | 93 | 1018.4 |
| 20260903054147 | 71 | 353 | 0.0 | 1.0 | 0.00 | 0.37 | 0.00 | 93 | 1018.4 |
| 20260903053642 | 71 | 54 | 0.0 | 1.0 | 0.00 | 0.37 | 0.00 | 93 | 1018.2 |
| 20260903053142 | 71 | 54 | 0.0 | 1.0 | 0.00 | 0.37 | 0.00 | 93 | 1018.2 |
| 20260903052641 | 72 | 11 | 0.0 | 1.0 | 0.00 | 0.37 | 0.00 | 93 | 1018.2 |
| 20260903052140 | 72 | 326 | 0.0 | 1.0 | 0.00 | 0.37 | 0.00 | 93 | 1018.3 |
| 20260903051640 | 72 | 54 | 0.0 | 1.0 | 0.00 | 0.37 | 0.00 | 93 | 1018.1 |
| 20260903051140 | 72 | 234 | 0.0 | 1.0 | 0.00 | 0.37 | 0.00 | 93 | 1018.2 |
| 20260903050641 | 72 | 11 | 0.0 | 1.0 | 0.00 | 0.37 | 0.00 | 93 | 1018.1 |
| 20260903050143 | 72 | 54 | 0.0 | 3.0 | 0.00 | 0.37 | 0.00 | 93 | 1018.3 |
| 20260903045930 | 72 | 54 | 0.0 | 3.0 | 0.00 | 0.37 | 0.00 | 93 | 1018.3 |
| 20260903045137 | 72 | 143 | 0.0 | 1.0 | 0.00 | 0.37 | 0.00 | 93 | 1018.5 |
| 20260903044637 | 72 | 54 | 0.0 | 1.0 | 0.00 | 0.37 | 0.00 | 93 | 1018.5 |
| 20260903044133 | 72 | 54 | 0.0 | 1.0 | 0.00 | 0.37 | 0.00 | 93 | 1018.6 |
| 20260903043634 | 72 | 54 | 0.0 | 1.0 | 0.00 | 0.37 | 0.00 | 93 | 1018.7 |
| 20260903043132 | 72 | 11 | 0.0 | 1.0 | 0.00 | 0.37 | 0.00 | 93 | 1018.5 |
| 20260903042632 | 72 | 28 | 0.0 | 1.0 | 0.00 | 0.37 | 0.00 | 93 | 1018.7 |
| 20260903042132 | 72 | 37 | 0.0 | 1.0 | 0.00 | 0.37 | 0.00 | 93 | 1018.8 |
| 20260903041920 | 72 | 11 | 0.0 | 3.0 | 0.00 | 0.37 | 0.00 | 93 | 1018.8 |
| 20260903041132 | 72 | 37 | 0.0 | 3.0 | 0.00 | 0.37 | 0.00 | 93 | 1019.1 |
| 20260903040713 | 72 | 54 | 0.0 | 1.0 | 0.00 | 0.37 | 0.00 | 93 | 1019.1 |
| 20260903040700 | 72 | 41 | 0.0 | 1.0 | 0.00 | 0.37 | 0.00 | 93 | 1019.0 |
| 20260903035631 | 72 | 11 | 0.0 | 1.0 | 0.00 | 0.37 | 0.37 | 93 | 1019.0 |
| 20260903035130 | 72 | 11 | 0.0 | 1.0 | 0.00 | 0.37 | 0.37 | 93 | 1018.8 |
| 20260903034631 | 72 | 296 | 0.0 | 1.0 | 0.00 | 0.37 | 0.37 | 93 | 1018.9 |
| 20260903034130 | 72 | 11 | 0.0 | 1.0 | 0.00 | 0.37 | 0.37 | 93 | 1019.0 |
| 20260903033632 | 72 | 54 | 0.0 | 1.0 | 0.00 | 0.37 | 0.37 | 93 | 1019.0 |
| 20260903033423 | 73 | 326 | 0.0 | 1.0 | 0.00 | 0.37 | 0.37 | 93 | 1018.9 |
| 20260903032620 | 73 | 11 | 0.0 | 1.0 | 0.00 | 0.37 | 0.37 | 92 | 1018.9 |
| 20260903032113 | 73 | 171 | 0.0 | 1.0 | 0.00 | 0.37 | 0.37 | 92 | 1019.0 |
| 20260903031607 | 73 | 143 | 0.0 | 1.0 | 0.00 | 0.37 | 0.37 | 92 | 1019.0 |
| 20260903031109 | 73 | 11 | 0.0 | 1.0 | 0.00 | 0.37 | 0.37 | 92 | 1018.9 |
| 20260903030607 | 73 | 89 | 0.0 | 3.0 | 0.00 | 0.37 | 0.37 | 92 | 1018.8 |
| 20260903030108 | 73 | 234 | 0.0 | 3.0 | 0.00 | 0.37 | 0.37 | 93 | 1018.9 |
| 20260903025606 | 73 | 54 | 0.0 | 3.0 | 0.00 | 0.37 | 0.37 | 93 | 1018.8 |
| 20260903025102 | 73 | 143 | 0.0 | 3.0 | 0.00 | 0.37 | 0.37 | 93 | 1018.8 |
| 20260903024604 | 73 | 54 | 0.0 | 3.0 | 0.00 | 0.37 | 0.37 | 92 | 1018.8 |
| 20260903024102 | 73 | 353 | 0.0 | 1.0 | 0.00 | 0.37 | 0.37 | 92 | 1018.9 |
| 20260903023602 | 73 | 117 | 0.0 | 3.0 | 0.00 | 0.37 | 0.37 | 92 | 1018.9 |
| 20260903023101 | 73 | 11 | 0.0 | 3.0 | 0.00 | 0.37 | 0.37 | 92 | 1019.1 |
| 20260903022602 | 73 | 41 | 0.0 | 1.0 | 0.00 | 0.37 | 0.37 | 92 | 1019.0 |
| 20260903022103 | 73 | 54 | 0.0 | 1.0 | 0.00 | 0.37 | 0.37 | 92 | 1018.7 |
| 20260903021601 | 73 | 279 | 0.0 | 1.0 | 0.00 | 0.37 | 0.37 | 92 | 1018.7 |
| 20260903021104 | 73 | 100 | 0.0 | 1.0 | 0.00 | 0.37 | 0.37 | 92 | 1018.6 |
| 20260903020602 | 73 | 28 | 0.0 | 1.0 | 0.00 | 0.37 | 0.37 | 92 | 1018.5 |
| 20260903015703 | 73 | 279 | 0.0 | 1.0 | 0.00 | 0.37 | 0.37 | 92 | 1018.4 |
| 20260903015643 | 73 | 353 | 0.0 | 3.0 | 0.00 | 0.37 | 0.37 | 92 | 1018.4 |
| 20260903014858 | 73 | 11 | 0.0 | 3.0 | 0.00 | 0.37 | 0.37 | 92 | 1018.1 |
| 20260903014103 | 73 | 353 | 0.0 | 3.0 | 0.00 | 0.37 | 0.37 | 91 | 1018.4 |
| 20260903013851 | 74 | 188 | 0.0 | 3.0 | 0.00 | 0.37 | 0.37 | 92 | 1018.3 |
| 20260903013105 | 74 | 205 | 0.0 | 1.0 | 0.00 | 0.37 | 0.37 | 92 | 1018.3 |
| 20260903012602 | 74 | 54 | 0.0 | 1.0 | 0.00 | 0.37 | 0.37 | 92 | 1018.5 |
| 20260903012103 | 74 | 100 | 1.0 | 3.0 | 0.00 | 0.37 | 0.37 | 91 | 1018.6 |
| 20260903011851 | 74 | 143 | 1.0 | 3.0 | 0.00 | 0.37 | 0.37 | 91 | 1018.7 |
| 20260903011101 | 74 | 162 | 0.0 | 3.0 | 0.00 | 0.37 | 0.37 | 91 | 1018.6 |
| 20260903010602 | 74 | 100 | 0.0 | 1.0 | 0.00 | 0.37 | 0.37 | 91 | 1018.7 |
| 20260903005600 | 74 | 11 | 0.0 | 3.0 | 0.00 | 0.37 | 0.37 | 91 | 1018.7 |
| 20260903005358 | 74 | 11 | 1.0 | 3.0 | 0.00 | 0.37 | 0.37 | 91 | 1018.8 |
| 20260903004600 | 74 | 41 | 1.0 | 3.0 | 0.00 | 0.37 | 0.37 | 91 | 1018.9 |
| 20260903004103 | 74 | 248 | 1.0 | 3.0 | 0.00 | 0.37 | 0.37 | 91 | 1018.8 |
| 20260903003854 | 74 | 54 | 1.0 | 3.0 | 0.00 | 0.37 | 0.37 | 91 | 1018.7 |
| 20260903003102 | 74 | 11 | 0.0 | 3.0 | 0.00 | 0.37 | 0.37 | 91 | 1018.6 |
| 20260903002602 | 74 | 70 | 0.0 | 3.0 | 0.00 | 0.37 | 0.37 | 90 | 1018.5 |
| 20260903002057 | 75 | 82 | 0.0 | 3.0 | 0.00 | 0.37 | 0.37 | 90 | 1018.6 |
| 20260903001551 | 75 | 171 | 0.0 | 3.0 | 0.00 | 0.37 | 0.37 | 90 | 1018.6 |
| 20260903001045 | 75 | 11 | 0.0 | 1.0 | 0.00 | 0.37 | 0.37 | 90 | 1018.5 |
| 20260903000540 | 75 | 234 | 0.0 | 1.0 | 0.00 | 0.37 | 0.37 | 90 | 1018.5 |
| 20260903000032 | 75 | 11 | 0.0 | 1.0 | 0.00 | 0.37 | 0.37 | 90 | 1018.6 |
| 20260902235822 | 75 | 28 | 0.0 | 1.0 | 0.00 | 0.37 | 0.37 | 90 | 1018.5 |
| 20260902235030 | 75 | 143 | 0.0 | 1.0 | 0.00 | 0.37 | 0.37 | 90 | 1018.8 |
| 20260902234529 | 75 | 100 | 0.0 | 1.0 | 0.00 | 0.37 | 0.37 | 90 | 1018.8 |
| 20260902234030 | 76 | 326 | 0.0 | 1.0 | 0.00 | 0.37 | 0.37 | 90 | 1018.8 |
| 20260902233530 | 76 | 11 | 0.0 | 1.0 | 0.00 | 0.37 | 0.37 | 90 | 1018.7 |
| 20260902233031 | 76 | 54 | 0.0 | 3.0 | 0.00 | 0.37 | 0.37 | 90 | 1018.5 |
| 20260902232530 | 76 | 11 | 0.0 | 3.0 | 0.00 | 0.37 | 0.37 | 90 | 1018.6 |
| 20260902232030 | 76 | 54 | 1.0 | 3.0 | 0.00 | 0.37 | 0.37 | 90 | 1018.6 |
| 20260902231530 | 76 | 117 | 1.0 | 3.0 | 0.00 | 0.37 | 0.37 | 90 | 1018.9 |
| 20260902231028 | 76 | 205 | 0.0 | 3.0 | 0.00 | 0.37 | 0.37 | 90 | 1018.6 |
| 20260902230531 | 76 | 143 | 0.0 | 1.0 | 0.00 | 0.37 | 0.37 | 90 | 1018.6 |
| 20260902230029 | 76 | 11 | 0.0 | 1.0 | 0.00 | 0.37 | 0.37 | 90 | 1018.7 |
| 20260902225529 | 76 | 100 | 0.0 | 1.0 | 0.00 | 0.37 | 0.37 | 90 | 1018.9 |
| 20260902225029 | 76 | 11 | 0.0 | 1.0 | 0.00 | 0.37 | 0.37 | 90 | 1018.8 |
| 20260902224533 | 76 | 326 | 0.0 | 1.0 | 0.00 | 0.37 | 0.37 | 91 | 1018.9 |
| 20260902224030 | 76 | 326 | 0.0 | 1.0 | 0.00 | 0.37 | 0.37 | 91 | 1018.9 |
| 20260902223524 | 76 | 11 | 0.0 | 3.0 | 0.00 | 0.37 | 0.37 | 91 | 1019.0 |
| 20260902223314 | 76 | 143 | 1.0 | 3.0 | 0.00 | 0.37 | 0.37 | 91 | 1018.8 |
| 20260902222601 | 76 | 353 | 0.0 | 3.0 | 0.00 | 0.37 | 0.37 | 92 | 1018.9 |
| 20260902222543 | 76 | 54 | 0.0 | 3.0 | 0.00 | 0.37 | 0.37 | 91 | 1018.7 |
| 20260902221511 | 76 | 171 | 0.0 | 3.0 | 0.00 | 0.37 | 0.37 | 92 | 1018.8 |
| 20260902221302 | 76 | 11 | 0.0 | 3.0 | 0.00 | 0.37 | 0.37 | 92 | 1018.7 |
| 20260902220758 | 76 | 11 | 0.0 | 3.0 | 0.00 | 0.37 | 0.37 | 92 | 1018.8 |
| 20260902220011 | 76 | 100 | 0.0 | 1.0 | 0.00 | 0.37 | 0.37 | 93 | 1019.1 |
| 20260902215511 | 76 | 82 | 0.0 | 3.0 | 0.00 | 0.37 | 0.37 | 93 | 1019.2 |
| 20260902215009 | 76 | 54 | 1.0 | 4.0 | 0.00 | 0.37 | 0.37 | 92 | 1019.2 |
| 20260902214801 | 76 | 82 | 1.0 | 4.0 | 0.00 | 0.37 | 0.37 | 92 | 1019.4 |
| 20260902214011 | 76 | 268 | 0.0 | 4.0 | 0.00 | 0.37 | 0.37 | 93 | 1019.5 |
| 20260902213506 | 75 | 279 | 0.0 | 3.0 | 0.00 | 0.37 | 0.37 | 93 | 1019.5 |
| 20260902213007 | 75 | 353 | 0.0 | 1.0 | 0.00 | 0.37 | 0.37 | 93 | 1019.4 |
| 20260902212506 | 75 | 28 | 0.0 | 1.0 | 0.00 | 0.37 | 0.37 | 92 | 1019.4 |
| 20260902212006 | 74 | 143 | 0.0 | 1.0 | 0.00 | 0.37 | 0.37 | 92 | 1019.4 |
| 20260902211507 | 74 | 73 | 0.0 | 3.0 | 0.00 | 0.37 | 0.37 | 92 | 1019.3 |
| 20260902211007 | 74 | 69 | 0.0 | 3.0 | 0.00 | 0.37 | 0.37 | 92 | 1019.2 |
| 20260902210507 | 74 | 100 | 0.0 | 1.0 | 0.00 | 0.37 | 0.37 | 92 | 1019.3 |
| 20260902210008 | 74 | 116 | 0.0 | 1.0 | 0.00 | 0.37 | 0.37 | 92 | 1019.1 |
| 20260902205803 | 74 | 11 | 0.0 | 1.0 | 0.00 | 0.37 | 0.37 | 91 | 1019.1 |
| 20260902205001 | 74 | 143 | 0.0 | 1.0 | 0.00 | 0.37 | 0.37 | 91 | 1019.2 |
| 20260902204502 | 74 | 143 | 0.0 | 1.0 | 0.00 | 0.37 | 0.37 | 91 | 1019.2 |
| 20260902204002 | 74 | 82 | 0.0 | 1.0 | 0.00 | 0.37 | 0.37 | 91 | 1019.1 |
| 20260902203503 | 74 | 54 | 0.0 | 3.0 | 0.00 | 0.37 | 0.37 | 91 | 1019.1 |
| 20260902203003 | 74 | 326 | 0.0 | 3.0 | 0.00 | 0.37 | 0.37 | 90 | 1019.1 |
| 20260902202502 | 74 | 326 | 0.0 | 1.0 | 0.00 | 0.37 | 0.37 | 90 | 1019.0 |
| 20260902202002 | 74 | 188 | 0.0 | 1.0 | 0.00 | 0.37 | 0.37 | 90 | 1019.0 |
| 20260902201756 | 74 | 116 | 0.0 | 1.0 | 0.00 | 0.37 | 0.37 | 90 | 1019.1 |
| 20260902201003 | 74 | 11 | 0.0 | 1.0 | 0.00 | 0.37 | 0.37 | 90 | 1019.1 |
| 20260902200503 | 74 | 11 | 0.0 | 1.0 | 0.00 | 0.37 | 0.37 | 90 | 1019.4 |
| 20260902200004 | 74 | 28 | 0.0 | 1.0 | 0.00 | 0.37 | 0.37 | 90 | 1019.6 |
| 20260902195503 | 74 | 11 | 0.0 | 3.0 | 0.00 | 0.37 | 0.37 | 90 | 1019.7 |